Regional Weather Roundup
Issued by NWS

Home | Current Version | Previous Version | Graphics & Text | Print | Product List | Glossary Off
Versions: 1 2 3 4 5 6 7 8 9 10 11 12 13 14 15 16 17 18 19 20 21 22 23 24 25 26 27 28 29 30 31 32 33 34 35 36 37 38 39 40 41 42 43 44 45 46 47 48 49 50

000
ASUS43 KMPX 222310
RWRMN
WEATHER ROUNDUP FOR MINNESOTA
NATIONAL WEATHER SERVICE TWIN CITIES/CHANHASSEN MN
600 PM CDT MON SEP 22 2014


NOTE: "FAIR" INDICATES FEW OR NO CLOUDS BELOW 12,000 FEET WITH NO
SIGNIFICANT WEATHER AND/OR OBSTRUCTIONS TO VISIBILITY. N/A MEANS
CURRENT SKY AND/OR WEATHER CONDITIONS ARE NOT AVAILABLE.

MNZ060>063-068>070-230000-
   Twin Cities Metro

CITY           SKY/WX    TMP DP  RH WIND       PRES   REMARKS
TWIN CITIES    SUNNY     70  48  45 S8        30.16F
ST PAUL        SUNNY     70  50  49 SW8       30.16F
CRYSTAL        SUNNY     71  49  45 W8        30.14F
BLAINE         SUNNY     72  52  49 SW5       30.15F
LAKEVILLE      SUNNY     68  50  52 S3        30.17S
EDEN PRAIRIE   SUNNY     70  50  49 SW8       30.15F
SOUTH ST PAUL  SUNNY     71  49  46 SW7       30.16S
LAKE ELMO      FAIR      68  54  60 SW6       30.17F
$$
MNZ001>005-007-008-013>017-022>024-027-028-230000-
   Northwest Minnesota

CITY           SKY/WX    TMP DP  RH WIND       PRES   REMARKS
BEMIDJI        SUNNY     71  48  43 SW6       30.09F
HALLOCK        SUNNY     77  43  29 S8        30.01S
ROSEAU         SUNNY     73  54  49 SW6       30.04S
WARROAD        SUNNY     72  54  53 SW6       30.04F
THIEF RVR FALL SUNNY     73  48  40 S10       30.06S
CROOKSTON      SUNNY     73  46  38 S9        30.05S
FOSSTON        SUNNY     73  50  43 SW10      30.09S
DETROIT LAKES  SUNNY     70  50  49 S7        30.11F
MOORHEAD       SUNNY     75  37  25 S10       30.07S
PARK RAPIDS    SUNNY     70  48  45 SW8       30.11F
MAHNOMEN       FAIR      71  48  43 S12       30.08F
$$
MNZ006-009>011-018-025>026-230000-
   North Central Minnesota

CITY           SKY/WX    TMP DP  RH WIND       PRES   REMARKS
BAUDETTE       SUNNY     72  48  42 SW8       30.04F
FLAG ISLAND    SUNNY     72  46  40 SW9       30.01F
INTL FALLS     SUNNY     70  51  51 SW9       30.05S
WASKISH        SUNNY     70  50  49 CALM      30.08S
BIG FORK       SUNNY     70  50  49 SW7       30.09F
LONGVILLE      SUNNY     70  50  49 S3        30.11S
GRAND RAPIDS   SUNNY     70  48  46 SW5       30.11F
CRANE LAKE     SUNNY     70  46  43 W3        30.07S
ORR            SUNNY     70  43  37 W5        30.05F
COOK           SUNNY     70  48  46 SW7       30.08F
WALKER         FAIR      70  48  45 SW6       30.10S
$$
MNZ012-019>021-037-230000-
   Northeast Minnesota

CITY           SKY/WX    TMP DP  RH WIND       PRES   REMARKS
DULUTH         MOSUNNY   69  49  48 W12       30.11S
ELY            SUNNY     68  46  45 W8        30.07S
HIBBING        SUNNY     70  50  49 W7        30.10S
EVELETH        SUNNY     68  46  45 W12       30.11R
DULUTH HARBOR  SUNNY     72  54  53 SW10G17   30.10S
TWO HARBORS    SUNNY     70  52  52 W8        30.07S
SILVER BAY     CLEAR     68  54  60 W3        30.06S
GRAND MARAIS     N/A     57  51  80 W7        30.04S
G MARAIS ARPRT CLEAR     64  46  52 W7        30.08R
$$
MNZ029>031-032-039>041-046>048-054>057-064-230000-
   West Central Minnesota

CITY           SKY/WX    TMP DP  RH WIND       PRES   REMARKS
FERGUS FALLS   SUNNY     73  45  35 S12       30.09F
WHEATON        SUNNY     72  48  43 SE8       30.10F
MORRIS         SUNNY     73  48  40 S9        30.11S
ALEXANDRIA     SUNNY     70  48  45 S8        30.14F
ELBOW LAKE     FAIR      71  50  48 S9        30.11S
WADENA         SUNNY     70  48  46 SW6       30.12S
GLENWOOD       SUNNY     72  50  46 S6        30.14F
APPLETON       SUNNY     75  45  33 SW3       30.11F
BENSON         SUNNY     73  48  40 S6        30.12F
ORTONVILLE     SUNNY     72  48  43 S5        30.10F
MADISON        SUNNY     75  48  38 SW12      30.11F
WILLMAR        FAIR      73  45  35 S3        30.15F
$$
MNZ033>034-036-042>043-049>051-058-059-230000-
   Central Minnesota

CITY           SKY/WX    TMP DP  RH WIND       PRES   REMARKS
ST CLOUD       SUNNY     73  48  41 S10       30.14F
SAUK CENTRE    FAIR      70  50  48 S7        30.14S
PAYNESVILLE    SUNNY     68  47  48 S5        30.14F
AITKIN         SUNNY     72  54  53 CALM      30.11F
PINE RIVER     SUNNY     70  52  52 SW6       30.14F
BRAINERD       SUNNY     69  49  48 W9        30.13F
STAPLES        SUNNY     70  46  43 S7        30.12F
LONG PRAIRIE   FAIR      70  46  43 S7        30.14S
LITTLE FALLS   SUNNY     70  46  43 SW6       30.14S
LITCHFIELD     SUNNY     72  50  46 S3        30.15F
BUFFALO        SUNNY     69  49  48 SW3       30.16S
MAPLE LAKE     SUNNY     71  54  55 SW3       30.16F
$$
MNZ037-044-045-052-053-230000-
   East Central Minnesota

CITY           SKY/WX    TMP DP  RH WIND       PRES   REMARKS
PRINCETON      SUNNY     72  52  49 S5        30.15S
MORA           SUNNY     68  48  49 SW5       30.15F
CAMBRIDGE      SUNNY     72  54  53 S6        30.13F
RUSH CITY      SUNNY     69  51  52 SW3       30.14F
MOOSE LAKE     SUNNY     68  48  49 W7        30.11S
HINCKLEY       FAIR      70  52  52 SW7       30.13F
CLOQUET        SUNNY     70  46  43 W5        30.12S
MCGREGOR       SUNNY     70  50  49 SW5       30.13S
$$
MNZ071>073-080-081-089-090-097-098-230000-
   Southwest Minnesota

CITY           SKY/WX    TMP DP  RH WIND       PRES   REMARKS
MONTEVIDEO     SUNNY     77  46  33 SW5       30.13S
GRANITE FALLS  SUNNY     72  47  40 S9        30.14F
CANBY          MOSUNNY   72  46  39 SW7       30.14S
MARSHALL       MOSUNNY   73  46  38 S6        30.13F
REDWOOD FALLS  SUNNY     73  46  38 S9        30.14F
OLIVIA         SUNNY     72  46  40 S7        30.14S
PIPESTONE      SUNNY     70  45  40 SW9       30.16S
WINDOM         MOSUNNY   72  46  40 S7        30.17F
WORTHINGTON    SUNNY     70  46  43 S12       30.18S
JACKSON        MOSUNNY   72  46  40 S10       30.19S
TRACY          MOSUNNY   72  48  42 S8        30.15F
SLAYTON        MOSUNNY   70  44  39 CALM      30.17F
$$
MNZ065>067-074>077-082>085-091>093-230000-
   South Central Minnesota

CITY           SKY/WX    TMP DP  RH WIND       PRES   REMARKS
MANKATO        SUNNY     72  46  40 SW5       30.17S
NEW ULM        SUNNY     72  52  49 S6        30.15F
ST JAMES       SUNNY     72  46  40 S6        30.17F
FAIRMONT       SUNNY     72  45  37 SW7       30.18F
GLENCOE        SUNNY     73  46  38 S6        30.15S
FARIBAULT      SUNNY     73  43  33 CALM      30.18F
OWATONNA       SUNNY     70  48  46 SW3       30.19S
WASECA         SUNNY     72  43  35 S7        30.20S
ALBERT LEA     SUNNY     70  48  46 CALM      30.19F
$$
MNZ078>079-086>088-094>096-230000-
   Southeast Minnesota

CITY           SKY/WX    TMP DP  RH WIND       PRES   REMARKS
ROCHESTER      SUNNY     68  49  50 W5        30.20F
RED WING       SUNNY     72  46  40 W5        30.16S
STANTON        SUNNY     70  50  48 SW5       30.16F
DODGE CENTER   SUNNY     68  50  52 W3        30.19F
WINONA         SUNNY     70  50  49 CALM      30.18F
AUSTIN         SUNNY     68  48  49 SW5       30.19F
PRESTON        SUNNY     67  53  60 SW5       30.20F
$$
ABBREVIATIONS USED IN REMARKS
   TC - TEMPERATURES IN CELSIUS
  WCI - WIND CHILL INDEX
   HX - HEAT INDEX
  VSB - VISIBILITY
$$



USA.gov is the U.S. government's official web portal to all federal, state and local government web resources and services.